| time (UTC) | temp F | wind direction | speed knots | gust knots | rain 1hr in | rain 24hr in | rain mn in | humidity % | barometer mb |
| 20260508030055 | 69 | 180 | 2.6 | 5.2 | 0.00 | 0.00 | 0.00 | 46 | 1011.7 |
| 20260508024600 | 72 | 233 | 0.9 | 2.6 | 0.00 | 0.00 | 0.00 | 36 | 1011.5 |
| 20260508023056 | 73 | 233 | 0.0 | 1.7 | 0.00 | 0.00 | 0.00 | 31 | 1011.3 |
| 20260508021555 | 74 | 0 | 0.0 | 1.7 | 0.00 | 0.00 | 0.00 | 26 | 1011.4 |
| 20260508020053 | 75 | 208 | 0.9 | 2.6 | 0.00 | 0.00 | 0.00 | 27 | 1011.4 |
| 20260508014558 | 76 | 208 | 0.0 | 2.6 | 0.00 | 0.00 | 0.00 | 28 | 1011.4 |
| 20260508013054 | 77 | 0 | 0.0 | 2.6 | 0.00 | 0.00 | 0.00 | 23 | 1011.5 |
| 20260508011607 | 77 | 208 | 0.0 | 3.5 | 0.00 | 0.00 | 0.00 | 22 | 1011.5 |
| 20260508010057 | 78 | 208 | 1.7 | 4.3 | 0.00 | 0.00 | 0.00 | 20 | 1011.6 |
| 20260508004559 | 79 | 210 | 1.7 | 5.2 | 0.00 | 0.00 | 0.00 | 19 | 1011.8 |
| 20260508003055 | 79 | 167 | 2.6 | 6.1 | 0.00 | 0.00 | 0.00 | 20 | 1011.9 |
| 20260508001556 | 79 | 170 | 2.6 | 6.1 | 0.00 | 0.00 | 0.00 | 20 | 1011.9 |
| 20260508000058 | 79 | 238 | 4.3 | 7.0 | 0.00 | 0.00 | 0.00 | 20 | 1012.0 |
| 20260507234559 | 79 | 0 | 1.7 | 8.7 | 0.00 | 0.00 | 0.00 | 21 | 1012.2 |
| 20260507233055 | 79 | 220 | 1.7 | 6.1 | 0.00 | 0.00 | 0.00 | 22 | 1012.1 |
| 20260507231559 | 79 | 211 | 3.5 | 7.0 | 0.00 | 0.00 | 0.00 | 22 | 1012.2 |
| 20260507230053 | 78 | 179 | 2.6 | 7.0 | 0.00 | 0.00 | 0.00 | 23 | 1012.4 |
| 20260507224559 | 78 | 233 | 2.6 | 7.0 | 0.00 | 0.00 | 0.00 | 24 | 1012.6 |
| 20260507223058 | 79 | 213 | 5.2 | 9.6 | 0.00 | 0.00 | 0.00 | 24 | 1012.7 |
| 20260507221557 | 77 | 226 | 2.6 | 8.7 | 0.00 | 0.00 | 0.00 | 23 | 1012.7 |
| 20260507220055 | 77 | 258 | 2.6 | 8.7 | 0.00 | 0.00 | 0.00 | 24 | 1013.1 |
| 20260507214557 | 77 | 203 | 4.3 | 7.0 | 0.00 | 0.00 | 0.00 | 25 | 1013.2 |
| 20260507213055 | 76 | 167 | 4.3 | 13.0 | 0.00 | 0.00 | 0.00 | 24 | 1013.2 |
| 20260507211600 | 76 | 178 | 4.3 | 8.7 | 0.00 | 0.00 | 0.00 | 26 | 1013.5 |
| 20260507210059 | 75 | 180 | 3.5 | 12.2 | 0.00 | 0.00 | 0.00 | 29 | 1013.7 |
| 20260507204601 | 75 | 181 | 4.3 | 11.3 | 0.00 | 0.00 | 0.00 | 29 | 1013.9 |
| 20260507203100 | 75 | 171 | 3.5 | 10.4 | 0.00 | 0.00 | 0.00 | 31 | 1014.1 |
| 20260507201610 | 74 | 238 | 5.2 | 11.3 | 0.00 | 0.00 | 0.00 | 33 | 1014.2 |
| 20260507200118 | 73 | 213 | 3.5 | 12.2 | 0.00 | 0.00 | 0.00 | 36 | 1014.3 |
| 20260507194558 | 73 | 185 | 6.1 | 13.0 | 0.00 | 0.00 | 0.00 | 35 | 1014.4 |
| 20260507193058 | 72 | 203 | 4.3 | 11.3 | 0.00 | 0.00 | 0.00 | 38 | 1014.4 |
| 20260507191559 | 72 | 185 | 6.1 | 11.3 | 0.00 | 0.00 | 0.00 | 38 | 1014.5 |
| 20260507184559 | 70 | 202 | 7.0 | 12.2 | 0.00 | 0.00 | 0.00 | 41 | 1014.7 |
| 20260507183054 | 70 | 234 | 4.3 | 9.6 | 0.00 | 0.00 | 0.00 | 42 | 1014.9 |
| 20260507181556 | 69 | 192 | 6.1 | 10.4 | 0.00 | 0.00 | 0.00 | 43 | 1015.0 |
| 20260507180057 | 68 | 240 | 6.1 | 13.9 | 0.00 | 0.00 | 0.00 | 43 | 1015.2 |
| 20260507174601 | 68 | 202 | 5.2 | 11.3 | 0.00 | 0.00 | 0.00 | 44 | 1015.1 |
| 20260507173102 | 67 | 179 | 7.0 | 12.2 | 0.00 | 0.00 | 0.00 | 44 | 1015.2 |
| 20260507171604 | 66 | 184 | 6.1 | 15.6 | 0.00 | 0.00 | 0.00 | 48 | 1015.3 |
| 20260507170059 | 66 | 194 | 6.1 | 15.6 | 0.00 | 0.00 | 0.00 | 49 | 1015.3 |
| 20260507164554 | 65 | 215 | 6.1 | 13.0 | 0.00 | 0.00 | 0.00 | 49 | 1015.5 |
| 20260507163110 | 64 | 198 | 6.1 | 14.8 | 0.00 | 0.00 | 0.00 | 52 | 1015.2 |
| 20260507161554 | 63 | 184 | 6.1 | 15.6 | 0.00 | 0.00 | 0.00 | 55 | 1015.2 |
| 20260507160057 | 62 | 205 | 6.1 | 14.8 | 0.00 | 0.00 | 0.00 | 58 | 1015.2 |
| 20260507154553 | 61 | 182 | 4.3 | 13.0 | 0.00 | 0.00 | 0.00 | 60 | 1015.5 |
| 20260507153101 | 60 | 198 | 5.2 | 8.7 | 0.00 | 0.00 | 0.00 | 62 | 1015.5 |
| 20260507151555 | 59 | 252 | 1.7 | 6.1 | 0.00 | 0.00 | 0.00 | 64 | 1015.4 |
| 20260507150055 | 59 | 280 | 4.3 | 9.6 | 0.00 | 0.00 | 0.00 | 63 | 1015.4 |
| 20260507144616 | 59 | 134 | 0.9 | 7.0 | 0.00 | 0.00 | 0.00 | 65 | 1015.4 |
| 20260507143056 | 59 | 266 | 0.9 | 7.8 | 0.00 | 0.00 | 0.00 | 66 | 1015.2 |
| 20260507141622 | 58 | 178 | 4.3 | 8.7 | 0.00 | 0.00 | 0.00 | 66 | 1015.0 |
| 20260507140058 | 58 | 195 | 3.5 | 7.8 | 0.00 | 0.00 | 0.00 | 66 | 1014.9 |
| 20260507134556 | 58 | 138 | 3.5 | 8.7 | 0.00 | 0.00 | 0.00 | 68 | 1014.6 |
| 20260507133056 | 57 | 175 | 2.6 | 6.1 | 0.00 | 0.00 | 0.00 | 69 | 1014.7 |
| 20260507131553 | 57 | 171 | 2.6 | 6.1 | 0.00 | 0.00 | 0.00 | 70 | 1014.7 |
| 20260507130104 | 58 | 121 | 0.9 | 5.2 | 0.00 | 0.00 | 0.00 | 68 | 1014.5 |
| 20260507124556 | 58 | 217 | 2.6 | 7.0 | 0.00 | 0.00 | 0.00 | 66 | 1014.4 |
| 20260507123053 | 58 | 217 | 4.3 | 10.4 | 0.00 | 0.00 | 0.00 | 66 | 1014.1 |
| 20260507121556 | 58 | 210 | 5.2 | 13.0 | 0.00 | 0.00 | 0.00 | 68 | 1014.2 |
| 20260507120058 | 57 | 250 | 3.5 | 11.3 | 0.00 | 0.00 | 0.00 | 69 | 1014.4 |
| 20260507114600 | 57 | 245 | 2.6 | 8.7 | 0.00 | 0.00 | 0.00 | 69 | 1014.4 |
| 20260507113055 | 57 | 173 | 0.9 | 5.2 | 0.00 | 0.00 | 0.00 | 68 | 1014.6 |
| 20260507111554 | 57 | 108 | 0.9 | 5.2 | 0.00 | 0.00 | 0.00 | 67 | 1014.5 |
| 20260507110059 | 57 | 196 | 0.0 | 7.8 | 0.00 | 0.00 | 0.00 | 66 | 1014.4 |
| 20260507104556 | 57 | 181 | 3.5 | 8.7 | 0.00 | 0.00 | 0.00 | 66 | 1014.4 |
| 20260507103113 | 58 | 205 | 0.9 | 4.3 | 0.00 | 0.00 | 0.00 | 64 | 1014.5 |
| 20260507101556 | 59 | 167 | 1.7 | 7.8 | 0.00 | 0.00 | 0.00 | 64 | 1014.4 |
| 20260507100054 | 60 | 177 | 2.6 | 8.7 | 0.00 | 0.00 | 0.00 | 63 | 1014.6 |
| 20260507094557 | 59 | 271 | 3.5 | 7.8 | 0.00 | 0.00 | 0.00 | 63 | 1014.5 |
| 20260507093100 | 60 | 240 | 4.3 | 10.4 | 0.00 | 0.00 | 0.00 | 61 | 1014.6 |
| 20260507091559 | 61 | 182 | 2.6 | 10.4 | 0.00 | 0.00 | 0.00 | 59 | 1014.3 |
| 20260507090053 | 60 | 175 | 1.7 | 4.3 | 0.00 | 0.00 | 0.00 | 60 | 1014.3 |
| 20260507084553 | 60 | 193 | 0.0 | 5.2 | 0.00 | 0.00 | 0.00 | 59 | 1014.1 |
| 20260507083056 | 60 | 261 | 0.9 | 3.5 | 0.00 | 0.00 | 0.00 | 59 | 1014.0 |
| 20260507081557 | 60 | 221 | 1.7 | 4.3 | 0.00 | 0.00 | 0.00 | 59 | 1013.9 |
| 20260507080054 | 61 | 30 | 0.9 | 4.3 | 0.00 | 0.00 | 0.00 | 56 | 1013.8 |
| 20260507074552 | 63 | 173 | 2.6 | 11.3 | 0.00 | 0.00 | 0.00 | 54 | 1013.6 |
| 20260507073057 | 63 | 218 | 7.0 | 19.1 | 0.00 | 0.00 | 0.00 | 53 | 1013.3 |
| 20260507071557 | 63 | 193 | 7.0 | 20.0 | 0.00 | 0.00 | 0.00 | 53 | 1013.1 |
| 20260507070059 | 64 | 136 | 8.7 | 19.1 | 0.00 | 0.00 | 0.00 | 52 | 1013.2 |
| 20260507064553 | 63 | 153 | 7.8 | 17.4 | 0.00 | 0.00 | 0.00 | 52 | 1013.2 |
| 20260507063056 | 63 | 188 | 7.0 | 20.0 | 0.00 | 0.00 | 0.00 | 52 | 1013.3 |
| 20260507061556 | 63 | 177 | 5.2 | 14.8 | 0.00 | 0.00 | 0.00 | 52 | 1013.3 |
| 20260507054552 | 66 | 190 | 7.0 | 15.6 | 0.00 | 0.00 | 0.00 | 49 | 1013.2 |
| 20260507053058 | 66 | 184 | 5.2 | 13.0 | 0.00 | 0.00 | 0.00 | 48 | 1013.2 |
| 20260507051556 | 67 | 184 | 5.2 | 11.3 | 0.00 | 0.00 | 0.00 | 48 | 1013.3 |
| 20260507050055 | 68 | 199 | 5.2 | 13.0 | 0.00 | 0.00 | 0.00 | 46 | 1013.3 |
| 20260507044606 | 69 | 163 | 7.0 | 13.9 | 0.00 | 0.00 | 0.00 | 45 | 1013.2 |
| 20260507043104 | 70 | 182 | 6.1 | 18.2 | 0.00 | 0.00 | 0.00 | 45 | 1013.2 |
| 20260507041552 | 70 | 196 | 7.0 | 14.8 | 0.00 | 0.00 | 0.00 | 45 | 1013.2 |
| 20260507040058 | 70 | 107 | 7.0 | 17.4 | 0.00 | 0.00 | 0.00 | 45 | 1012.9 |
| 20260507034608 | 71 | 200 | 7.8 | 16.5 | 0.00 | 0.00 | 0.00 | 45 | 1012.6 |
| 20260507033059 | 72 | 184 | 7.0 | 18.2 | 0.00 | 0.00 | 0.00 | 44 | 1012.2 |
| 20260507031553 | 72 | 190 | 8.7 | 20.9 | 0.00 | 0.00 | 0.00 | 43 | 1011.9 |